Miscellaneous Local Product
Issued by NWS Hastings, NE

Home | Current Version | Previous Version | Graphics & Text | Print | Product List | Glossary On
Versions: 1 2 3 4 5 6 7 8 9 10 11 12 13 14 15 16 17 18 19 20 21 22 23 24 25 26 27 28 29 30 31 32 33 34 35 36 37 38 39 40 41 42 43 44 45 46 47 48 49 50
000
AXUS43 KGID 241002
MISGRI

GID CWA HOURLY WEATHER ROUNDUP
NATIONAL WEATHER SERVICE HASTINGS NE
500 AM CDT SUN SEP 24 2017

NOTE: "FAIR" INDICATES FEW OR NO CLOUDS BELOW 12,000 FEET WITH NO
SIGNIFICANT WEATHER AND/OR OBSTRUCTIONS TO VISIBILITY.

...SOUTH CENTRAL NEBRASKA...

CITY           SKY/WX    TMP DP  RH WIND       PRES   REMARKS
GRAND ISLAND   PTCLDY    66  62  87 S7        29.87F
HASTINGS       PTCLDY    70  61  73 S8        29.88S
KEARNEY        PTCLDY    59  58  96 E5        29.86F
ORD            CLOUDY    57  55  93 CALM      29.85F
YORK           CLEAR     68  63  83 S12       29.89S
AURORA         CLEAR     65  62  90 SE8       29.87F
LEXINGTON      CLOUDY    60  58  94 CALM      29.86R
HOLDREGE       LGT RAIN  64  61  91 SE6       29.85F
HEBRON         CLEAR     70  63  78 S8        29.90R

...NEBRASKA PANHANDLE...

CITY           SKY/WX    TMP DP  RH WIND       PRES   REMARKS
CHADRON        CLOUDY    45  43  93 N12       29.96F
ALLIANCE       CLOUDY    45  43  93 N10       29.95R
SCOTTSBLUFF    CLOUDY    46  43  89 NW7       29.97R
SIDNEY         CLOUDY    44  43  96 N13       29.97R

...WESTERN AND NORTH CENTRAL NEBRASKA...

CITY           SKY/WX    TMP DP  RH WIND       PRES   REMARKS
VALENTINE      LGT RAIN  51  49  92 NW8       29.90F
AINSWORTH      LGT RAIN  49  49 100 NW7       29.90F
ONEILL         CLOUDY    54  54 100 CALM      29.88F FOG
BROKEN BOW     CLOUDY    56  55  97 N3        29.85F
IMPERIAL       RAIN      49  47  93 NE10      29.91R
NORTH PLATTE   HVY RAIN  51  50  96 NW9       29.90S FOG
MCCOOK         LGT RAIN  60  60 100 CALM      29.85S

...EASTERN NEBRASKA...

CITY           SKY/WX    TMP DP  RH WIND       PRES   REMARKS
NORFOLK        MOCLDY    68  64  87 S10       29.87R
SO SIOUX CITY  CLEAR     64  64 100 SE7       29.89S
TEKAMAH        CLEAR     67  64  90 SE5       29.90S
COLUMBUS       PTCLDY    71  63  75 S12       29.88S
ALBION         PTCLDY    58  57  96 CALM      29.88F
OMAHA EPPLEY   MOCLDY    70  64  81 SE7       29.91S
MILLARD        CLEAR     71  66  84 E3        29.91S
LINCOLN        PTCLDY    68  62  81 S6        29.91R
NEBRASKA CITY  CLEAR     69  68  96 S7        29.92S
BEATRICE       CLEAR     70  63  78 SE6       29.91R
FALLS CITY     CLEAR     68  65  90 SE5       29.91S

...NORTHERN KANSAS...

CITY           SKY/WX    TMP DP  RH WIND       PRES   REMARKS
GOODLAND       LGT RAIN  50  49  96 N13       29.89F
HILL CITY      CLOUDY    68  66  93 S8        29.86R
NORTON         RAIN      64  61  88 S7        29.85
PHILLIPSBURG   CLEAR     73  61  64 S10       29.86S
SMITH CENTER   PTCLDY    70  61  73 SE10      29.87R
HAYS           PTCLDY    73  63  70 S15G22    29.86S
RUSSELL        PTCLDY    72  63  73 S16       29.86S
CONCORDIA      CLEAR     67  64  90 SE6       29.89S
SALINA         CLEAR     74  63  68 SE8       29.89R
TOPEKA         CLEAR     68  66  93 CALM      29.93R



USA.gov is the U.S. government's official web portal to all federal, state and local government web resources and services.